Tracking 22779 objects as of 10-Apr-2021
HD Live streaming from Space Station
objects crossing your sky now

FALCON 9 R/B

Track FALCON 9 R/B now!


NORAD ID: 40391
Int'l Code: 2015-007B
Perigee: 164,374.5 km
Apogee: 407,383.3 km
Inclination: 36.6 °
Period: 26,205.4 minutes
Semi major axis: 292249 km
RCS: Unknown
Launch date: February 11, 2015
Source: United States (US)
Launch site: AIR FORCE EASTERN TEST RANGE (AFETR)

Note: This is a ROCKET BODY
aabbcc
Your satellite tracking list
Your tracking list is empty




NASA's NSSDC Master Catalog

Two Line Element Set (TLE):
1 40391U 15007B   21111.28904650 -.00000422  00000-0  00000+0 0  9998
2 40391  36.5665 156.5040 4157551  57.9405 318.7738  0.05495047  1180
Source of the keplerian elements: AFSPC